This demonstration page uses our WeatherBlox Daily Observations layout. Learn more.

Left ArrowRight Arrow

39.29038, -76.61219

Hourly Observations for April 6, 2022

Temp ( °F °C ) Dew Point ( °F °C ) Humidity (%) Winds ( mph kmh ) Pressure ( in mb ) Visibility ( mi km ) Precip ( " mm )
12:54 am 00:54 Cloudy with Light Rain 52 11.1 50 10 93 93 ENE 12 19 29.73 1007 4 6 0.10 2.54
1:12 am 01:12 Cloudy with Rain 52 11.1 50 10 93 93 ENE 12 19 29.72 1007 3 5 0.04 1.02
1:21 am 01:21 Cloudy with Rain 52 11.1 50 10 93 93 ENE 13 20 29.71 1006 4 6 0.07 1.78
1:54 am 01:54 Cloudy with Rain 52 11.1 50 10 93 93 ENE 14 22 29.69 1006 3 5 0.19 4.83
2:34 am 02:34 Cloudy with Rain 52 11.1 50 10 93 93 ENE 14 22 29.66 1004 2 3 0.15 3.81
2:54 am 02:54 Cloudy with Light Rain 52 11.1 50 10 93 93 NE 16 26 29.62 1003 3 5 0.23 5.84
3:24 am 03:24 Cloudy with Rain 52 11.1 51 10.6 97 97 NE 13 20 29.61 1003 4 6 0.07 1.78
3:41 am 03:41 Cloudy with Heavy Rain 52 11.1 50 10 93 93 NE 18 30 29.58 1002 2 3 0.13 3.30
3:54 am 03:54 Cloudy with Rain 52 11.1 50 10 93 93 NE 15 24 29.58 1002 3 5 0.20 5.08
4:07 am 04:07 Cloudy with Rain 52 11.1 50 10 93 93 ENE 18 30 29.57 1001 3 4 0.06 1.52
4:17 am 04:17 Cloudy with Light Rain 52 11.1 50 10 93 93 ENE 18 30 29.56 1001 4 6 0.09 2.29
4:54 am 04:54 Cloudy with Light Rain 53 11.7 51 10.6 93 93 NE 20 31 29.55 1001 5 8 0.12 3.05
5:54 am 05:54 Cloudy with Light Rain 53 11.7 51 10.6 93 93 NE 13 20 29.55 1001 4 6 0.02 0.51
6:36 am 06:36 Cloudy with Light Rain 53 11.7 51 10.6 93 93 NNE 10 17 29.57 1001 3 4 0.01 0.25
6:54 am 06:54 Cloudy with Light Rain 53 11.7 51 10.6 93 93 NE 16 26 29.56 1001 2 2 0.02 0.51
7:54 am 07:54 Cloudy with Rain 54 12.2 52 11.1 93 93 N 5 7 29.61 1003 1 1 0.04 1.02
8:45 am 08:45 Cloudy with Light Rain 53 11.7 51 10.6 93 93 N 9 15 29.64 1004 2 2 0.05 1.27
8:54 am 08:54 Cloudy with Light Rain 53 11.7 51 10.6 93 93 N 9 15 29.64 1004 2 2 0.05 1.27
9:16 am 09:16 Cloudy with Light Rain 53 11.7 50 10 89 89 N 5 7 29.66 1004 2 3 0.00 0.00
9:54 am 09:54 Cloudy with Light Rain 53 11.7 50 10 89 89 N 6 9 29.68 1005 2 3 0.01 0.25
9:59 am 09:59 Cloudy with Light Rain 53 11.7 51 10.6 93 93 N 5 7 29.68 1005 2 2 0.00 0.00
10:54 am 10:54 Cloudy with Light Rain 54 12.2 51 10.6 90 90 NNW 5 7 29.70 1006 2 3 0.02 0.51
11:20 am 11:20 Cloudy with Mist and Fog 55 12.8 52 11.1 90 90 N 6 9 29.72 1006 6 10 0.00 0.00
11:54 am 11:54 Cloudy 57 13.9 52 11.1 83 83 NNE 7 11 29.72 1007 10 16 0.00 0.00
12:37 pm 12:37 Cloudy 59 15 53 11.7 81 81 N 6 9 29.75 1007 10 16 0.00 0.00
12:54 pm 12:54 Cloudy 59 15 52 11.1 78 78 NNW 5 7 29.74 1007 10 16 0.00 0.00
1:54 pm 13:54 Cloudy 61 16.1 53 11.7 75 75 NNE 8 13 29.75 1007 10 16 0.00 0.00
2:46 pm 14:46 Mostly Cloudy 63 17.2 52 11.1 68 68 N 6 9 29.75 1007 10 16 0.00 0.00
2:54 pm 14:54 Mostly Cloudy 63 17.2 52 11.1 68 68 NE 7 11 29.75 1008 10 16 0.00 0.00
3:54 pm 15:54 Cloudy 62 16.7 52 11.1 70 70 VRB 3 6 29.79 1009 10 16 0.00 0.00
4:54 pm 16:54 Cloudy 61 16.1 52 11.1 72 72 E 10 17 29.78 1008 10 16 0.00 0.00
5:54 pm 17:54 Mostly Cloudy 59 15 52 11.1 78 78 E 13 20 29.78 1008 10 16 0.00 0.00
6:48 pm 18:48 Cloudy 59 15 52 11 77 77 SE 9 15 29.80 1009 10 16 0.00 0.00
6:54 pm 18:54 Cloudy 58 14.4 52 11.1 81 81 ESE 8 13 29.80 1009 10 16 0.00 0.00
7:18 pm 19:18 Cloudy 58 14.4 52 11.1 81 81 ESE 8 13 29.82 1010 10 16 0.00 0.00
7:42 pm 19:42 Cloudy 58 14.4 52 11.1 81 81 ESE 9 15 29.80 1009 10 16 0.00 0.00
7:54 pm 19:54 Cloudy 57 13.9 52 11.1 83 83 E 9 15 29.80 1009 10 16 0.00 0.00
8:54 pm 20:54 Cloudy 56 13.3 52 11.1 87 87 E 9 15 29.82 1010 10 16 0.00 0.00
9:45 pm 21:45 Cloudy 56 13.3 50 10 81 81 E 12 19 29.84 1011 10 16 0.00 0.00
9:54 pm 21:54 Cloudy 55 12.8 50 10 83 83 E 10 17 29.84 1010 10 16 0.00 0.00
10:24 pm 22:24 Cloudy 55 12.8 50 10 83 83 E 12 19 29.85 1011 10 16 0.00 0.00
10:54 pm 22:54 Cloudy 55 12.8 50 10 83 83 E 14 22 29.85 1011 7 11 0.00 0.00
11:54 pm 23:54 Cloudy 54 12.2 49 9.4 83 83 E 12 19 29.84 1011 10 16 0.00 0.00

Powered by AerisWeather